owner,sensor,date,latitude,longitude,vertical_datum,wind_speed,wind_to_direction,wind_speed_of_gust,qcFlag 
TABS,ioos:station:wmo:42046:1,2009-08-01T00:00:00Z,27.8903,-94.0367,4.0,3.486043603,171.7539089,4.62,'11111222,11111222,11111222' 
TABS,ioos:station:wmo:42046:1,2009-08-01T00:30:00Z,27.8903,-94.0367,4.0,4.174410138,163.866318,5.24,'11111222,11111222,11111222' 
TABS,ioos:station:wmo:42046:1,2009-08-01T01:00:00Z,27.8903,-94.0367,4.0,4.242004243,165.6691706,5.56,'11111222,11111222,11111222' 
TABS,ioos:station:wmo:42046:1,2009-08-01T01:30:00Z,27.8903,-94.0367,4.0,4.250105881,161.4800434,5.45,'11111222,11111222,11111222' 
TABS,ioos:station:wmo:42046:1,2009-08-01T02:00:00Z,27.8903,-94.0367,4.0,4.638803725,158.6346391,5.86,'11111222,11111222,11111222' 
TABS,ioos:station:wmo:42046:1,2009-08-01T02:30:00Z,27.8903,-94.0367,4.0,4.630421147,162.6609895,5.81,'11111222,11111222,11111222' 
TABS,ioos:station:wmo:42046:1,2009-08-01T03:00:00Z,27.8903,-94.0367,4.0,5.097783832,162.0628971,6.58,'11111222,11111222,11111222' 
TABS,ioos:station:wmo:42046:1,2009-08-01T03:30:00Z,27.8903,-94.0367,4.0,5.172011214,164.7548435,6.56,'11111222,11111222,11111222' 
TABS,ioos:station:wmo:42046:1,2009-08-01T04:00:00Z,27.8903,-94.0367,4.0,5.36686128,167.5177503,6.66,'11111222,11111222,11111222' 
TABS,ioos:station:wmo:42046:1,2009-08-01T04:30:00Z,27.8903,-94.0367,4.0,5.789991364,167.8363675,7.2,'11111222,11111222,11111222' 
TABS,ioos:station:wmo:42046:1,2009-08-01T05:00:00Z,27.8903,-94.0367,4.0,5.373788236,168.1884576,7.02,'11111222,11111222,11111222' 
TABS,ioos:station:wmo:42046:1,2009-08-01T05:30:00Z,27.8903,-94.0367,4.0,5.63242399,172.9635326,7.63,'11111222,11111222,11111222' 
TABS,ioos:station:wmo:42046:1,2009-08-01T06:00:00Z,27.8903,-94.0367,4.0,5.719388079,172.4651644,7.41,'11111222,11111222,11111222' 
TABS,ioos:station:wmo:42046:1,2009-08-01T06:30:00Z,27.8903,-94.0367,4.0,6.107208855,168.285525,7.65,'11111222,11111222,11111222' 
TABS,ioos:station:wmo:42046:1,2009-08-01T07:00:00Z,27.8903,-94.0367,4.0,6.587723431,168.2638785,8.56,'11111222,11111222,11111222' 
TABS,ioos:station:wmo:42046:1,2009-08-01T07:30:00Z,27.8903,-94.0367,4.0,6.861348264,166.0855174,8.38,'11111222,11111222,11111222' 
TABS,ioos:station:wmo:42046:1,2009-08-01T08:00:00Z,27.8903,-94.0367,4.0,6.17170965,170.1105667,8.15,'11111222,11111222,11111222' 
TABS,ioos:station:wmo:42046:1,2009-08-01T08:30:00Z,27.8903,-94.0367,4.0,6.581284069,172.842816,8.36,'11111222,11111222,11111222' 
TABS,ioos:station:wmo:42046:1,2009-08-01T09:00:00Z,27.8903,-94.0367,4.0,6.145770904,175.8946766,7.58,'11111222,11111222,11111222' 
TABS,ioos:station:wmo:42046:1,2009-08-01T09:30:00Z,27.8903,-94.0367,4.0,6.035238189,170.9437022,7.93,'11111222,11111222,11111222' 
TABS,ioos:station:wmo:42046:1,2009-08-01T10:00:00Z,27.8903,-94.0367,4.0,6.155103573,170.4613938,8.26,'11111222,11111222,11111222' 
TABS,ioos:station:wmo:42046:1,2009-08-01T10:30:00Z,27.8903,-94.0367,4.0,5.387327723,168.544302,6.94,'11111222,11111222,11111222' 
TABS,ioos:station:wmo:42046:1,2009-08-01T11:00:00Z,27.8903,-94.0367,4.0,4.985147942,167.1348427,6.63,'11111222,11111222,11111222' 
TABS,ioos:station:wmo:42046:1,2009-08-01T11:30:00Z,27.8903,-94.0367,4.0,4.756216984,161.1081683,6.14,'11111222,11111222,11111222' 
TABS,ioos:station:wmo:42046:1,2009-08-01T12:00:00Z,27.8903,-94.0367,4.0,5.328648984,165.5467426,7.08,'11111222,11111222,11111222' 
TABS,ioos:station:wmo:42046:1,2009-08-01T12:30:00Z,27.8903,-94.0367,4.0,5.45270575,160.5019346,7.1,'11111222,11111222,11111222' 
TABS,ioos:station:wmo:42046:1,2009-08-01T13:00:00Z,27.8903,-94.0367,4.0,5.480811984,164.4425608,7.11,'11111222,11111222,11111222' 
TABS,ioos:station:wmo:42046:1,2009-08-01T13:30:00Z,27.8903,-94.0367,4.0,4.622607489,169.15216,5.79,'11111222,11111222,11111222' 
TABS,ioos:station:wmo:42046:1,2009-08-01T14:00:00Z,27.8903,-94.0367,4.0,5.632086647,166.6548699,7.85,'11111222,11111222,11111222' 
TABS,ioos:station:wmo:42046:1,2009-08-01T14:30:00Z,27.8903,-94.0367,4.0,5.271062511,171.270597,7.2,'11111222,11111222,11111222' 
TABS,ioos:station:wmo:42046:1,2009-08-01T15:00:00Z,27.8903,-94.0367,4.0,4.937053777,172.0834872,6.28,'11111222,11111222,11111222' 
TABS,ioos:station:wmo:42046:1,2009-08-01T15:30:00Z,27.8903,-94.0367,4.0,4.862303981,172.4367322,6.42,'11111222,11111222,11111222' 
TABS,ioos:station:wmo:42046:1,2009-08-01T16:00:00Z,27.8903,-94.0367,4.0,4.878206638,169.7269038,5.97,'11111222,11111222,11111222' 
TABS,ioos:station:wmo:42046:1,2009-08-01T16:30:00Z,27.8903,-94.0367,4.0,4.896243458,171.3074497,6.58,'11111222,11111222,11111222' 
TABS,ioos:station:wmo:42046:1,2009-08-01T17:00:00Z,27.8903,-94.0367,4.0,4.355008611,170.8839727,5.65,'11111222,11111222,11111222' 
TABS,ioos:station:wmo:42046:1,2009-08-01T17:30:00Z,27.8903,-94.0367,4.0,4.628714724,169.4185997,6.55,'11111222,11111222,11111222' 
TABS,ioos:station:wmo:42046:1,2009-08-01T18:00:00Z,27.8903,-94.0367,4.0,4.543412814,173.0472692,5.69,'11111222,11111222,11111222' 
TABS,ioos:station:wmo:42046:1,2009-08-01T18:30:00Z,27.8903,-94.0367,4.0,4.079534287,169.4064627,5.31,'11111222,11111222,11111222' 
TABS,ioos:station:wmo:42046:1,2009-08-01T19:00:00Z,27.8903,-94.0367,4.0,3.458106418,172.6902542,4.57,'11111222,11111222,11111222' 
TABS,ioos:station:wmo:42046:1,2009-08-01T19:30:00Z,27.8903,-94.0367,4.0,3.553167601,177.5807069,4.66,'11111222,11111222,11111222' 
TABS,ioos:station:wmo:42046:1,2009-08-01T20:00:00Z,27.8903,-94.0367,4.0,3.042005917,174.9081072,4.05,'11111222,11111222,11111222' 
TABS,ioos:station:wmo:42046:1,2009-08-01T20:30:00Z,27.8903,-94.0367,4.0,3.192773089,168.6199167,4.32,'11111222,11111222,11111222' 
TABS,ioos:station:wmo:42046:1,2009-08-01T21:00:00Z,27.8903,-94.0367,4.0,3.181571939,178.1990542,4.33,'11111222,11111222,11111222' 
TABS,ioos:station:wmo:42046:1,2009-08-01T21:30:00Z,27.8903,-94.0367,4.0,3.055650504,168.1019231,4.01,'11111222,11111222,11111222' 
TABS,ioos:station:wmo:42046:1,2009-08-01T22:00:00Z,27.8903,-94.0367,4.0,3.39705755,169.4841887,4.69,'11111222,11111222,11111222' 
TABS,ioos:station:wmo:42046:1,2009-08-01T22:30:00Z,27.8903,-94.0367,4.0,3.47844793,165.0051664,4.71,'11111222,11111222,11111222' 
TABS,ioos:station:wmo:42046:1,2009-08-01T23:00:00Z,27.8903,-94.0367,4.0,3.993256816,164.606702,4.91,'11111222,11111222,11111222' 
TABS,ioos:station:wmo:42046:1,2009-08-01T23:30:00Z,27.8903,-94.0367,4.0,3.80422134,161.612932,5.14,'11111222,11111222,11111222' 
TABS,ioos:station:wmo:42046:1,2009-08-02T00:00:00Z,27.8903,-94.0367,4.0,4.3063906,158.6188643,5.46,'11111222,11111222,11111222' 
TABS,ioos:station:wmo:42046:1,2009-08-02T00:30:00Z,27.8903,-94.0367,4.0,4.670770814,157.3332182,5.94,'11111222,11111222,11111222' 
TABS,ioos:station:wmo:42046:1,2009-08-02T01:00:00Z,27.8903,-94.0367,4.0,4.802343178,157.6006593,5.99,'11111222,11111222,11111222' 
TABS,ioos:station:wmo:42046:1,2009-08-02T01:30:00Z,27.8903,-94.0367,4.0,4.670770814,157.3332182,5.9,'11111222,11111222,11111222' 
TABS,ioos:station:wmo:42046:1,2009-08-02T02:00:00Z,27.8903,-94.0367,4.0,4.478146938,160.8370095,5.71,'11111222,11111222,11111222' 
TABS,ioos:station:wmo:42046:1,2009-08-02T02:30:00Z,27.8903,-94.0367,4.0,4.502887962,168.9897563,5.51,'11111222,11111222,11111222' 
TABS,ioos:station:wmo:42046:1,2009-08-02T03:00:00Z,27.8903,-94.0367,4.0,4.23785323,167.0461586,5.24,'11111222,11111222,11111222' 
TABS,ioos:station:wmo:42046:1,2009-08-02T03:30:00Z,27.8903,-94.0367,4.0,4.47825859,164.722685,5.61,'11111222,11111222,11111222' 
TABS,ioos:station:wmo:42046:1,2009-08-02T04:00:00Z,27.8903,-94.0367,4.0,4.448752634,159.610025,5.72,'11111222,11111222,11111222' 
TABS,ioos:station:wmo:42046:1,2009-08-02T04:30:00Z,27.8903,-94.0367,4.0,4.89449691,163.3794924,6.4,'11111222,11111222,11111222' 
TABS,ioos:station:wmo:42046:1,2009-08-02T05:00:00Z,27.8903,-94.0367,4.0,4.861861783,168.2511774,5.9,'11111222,11111222,11111222' 
TABS,ioos:station:wmo:42046:1,2009-08-02T05:30:00Z,27.8903,-94.0367,4.0,5.246189093,165.540184,6.7,'11111222,11111222,11111222' 
TABS,ioos:station:wmo:42046:1,2009-08-02T06:00:00Z,27.8903,-94.0367,4.0,5.449376111,160.6010466,6.79,'11111222,11111222,11111222' 
TABS,ioos:station:wmo:42046:1,2009-08-02T06:30:00Z,27.8903,-94.0367,4.0,5.237804884,164.610811,6.47,'11111222,11111222,11111222' 
TABS,ioos:station:wmo:42046:1,2009-08-02T07:00:00Z,27.8903,-94.0367,4.0,4.808846015,171.0276048,6.58,'11111222,11111222,11111222' 
TABS,ioos:station:wmo:42046:1,2009-08-02T07:30:00Z,27.8903,-94.0367,4.0,4.920050813,171.8207201,6.05,'11111222,11111222,11111222' 
TABS,ioos:station:wmo:42046:1,2009-08-02T08:00:00Z,27.8903,-94.0367,4.0,4.97663541,169.9322307,6.68,'11111222,11111222,11111222' 
TABS,ioos:station:wmo:42046:1,2009-08-02T08:30:00Z,27.8903,-94.0367,4.0,4.929300153,157.0763981,6.17,'11111222,11111222,11111222' 
TABS,ioos:station:wmo:42046:1,2009-08-02T09:00:00Z,27.8903,-94.0367,4.0,4.862591901,164.2490736,6.1,'11111222,11111222,11111222' 
TABS,ioos:station:wmo:42046:1,2009-08-02T09:30:00Z,27.8903,-94.0367,4.0,5.535241639,165.1355053,7.29,'11111222,11111222,11111222' 
TABS,ioos:station:wmo:42046:1,2009-08-02T10:00:00Z,27.8903,-94.0367,4.0,5.301367748,169.3473844,6.91,'11111222,11111222,11111222' 
TABS,ioos:station:wmo:42046:1,2009-08-02T10:30:00Z,27.8903,-94.0367,4.0,5.048286838,168.1115802,6.57,'11111222,11111222,11111222' 
TABS,ioos:station:wmo:42046:1,2009-08-02T11:00:00Z,27.8903,-94.0367,4.0,4.208622102,170.426005,5.54,'11111222,11111222,11111222' 
TABS,ioos:station:wmo:42046:1,2009-08-02T11:30:00Z,27.8903,-94.0367,4.0,4.894946374,165.083908,6.27,'11111222,11111222,11111222' 
TABS,ioos:station:wmo:42046:1,2009-08-02T12:00:00Z,27.8903,-94.0367,4.0,4.186167699,165.8976086,5.42,'11111222,11111222,11111222' 
TABS,ioos:station:wmo:42046:1,2009-08-02T12:30:00Z,27.8903,-94.0367,4.0,4.220355435,171.1405303,5.26,'11111222,11111222,11111222' 
TABS,ioos:station:wmo:42046:1,2009-08-02T13:00:00Z,27.8903,-94.0367,4.0,3.832753579,172.5043703,4.92,'11111222,11111222,11111222' 
TABS,ioos:station:wmo:42046:1,2009-08-02T13:30:00Z,27.8903,-94.0367,4.0,3.908657058,176.1861445,5.15,'11111222,11111222,11111222' 
TABS,ioos:station:wmo:42046:1,2009-08-02T14:00:00Z,27.8903,-94.0367,4.0,3.773830945,182.5820847,5.03,'11111222,11111222,11111222' 
TABS,ioos:station:wmo:42046:1,2009-08-02T14:30:00Z,27.8903,-94.0367,4.0,4.785530274,182.7549892,6.31,'11111222,11111222,11111222' 
TABS,ioos:station:wmo:42046:1,2009-08-02T15:00:00Z,27.8903,-94.0367,4.0,4.644308345,187.9209318,5.86,'11111222,11111222,11111222' 
TABS,ioos:station:wmo:42046:1,2009-08-02T15:30:00Z,27.8903,-94.0367,4.0,4.538512972,187.4697002,5.89,'11111222,11111222,11111222' 
TABS,ioos:station:wmo:42046:1,2009-08-02T16:00:00Z,27.8903,-94.0367,4.0,3.936724527,183.3495703,5.23,'11111222,11111222,11111222' 
TABS,ioos:station:wmo:42046:1,2009-08-02T16:30:00Z,27.8903,-94.0367,4.0,2.940153057,188.2129714,3.94,'11111222,11111222,11111222' 
TABS,ioos:station:wmo:42046:1,2009-08-02T17:00:00Z,27.8903,-94.0367,4.0,2.425963726,184.0185101,3.26,'11111222,11111222,11111222' 
TABS,ioos:station:wmo:42046:1,2009-08-02T17:30:00Z,27.8903,-94.0367,4.0,1.011928851,161.5653047,2.08,'11111222,11111222,11111222' 
TABS,ioos:station:wmo:42046:1,2009-08-02T18:00:00Z,27.8903,-94.0367,4.0,0.809567786,197.987503,1.53,'11111222,11111222,11111222' 
TABS,ioos:station:wmo:42046:1,2009-08-02T18:30:00Z,27.8903,-94.0367,4.0,1.315750736,160.4636012,2.17,'11111222,11111222,11111222' 
TABS,ioos:station:wmo:42046:1,2009-08-02T19:00:00Z,27.8903,-94.0367,4.0,0.53,121.8911381,1.28,'11111222,11111222,11111222' 
TABS,ioos:station:wmo:42046:1,2009-08-02T19:30:00Z,27.8903,-94.0367,4.0,1.162970335,154.5369249,2.05,'11111222,11111222,11111222' 
TABS,ioos:station:wmo:42046:1,2009-08-02T20:00:00Z,27.8903,-94.0367,4.0,0.679779376,153.812161,1.62,'11111222,11111222,11111222' 
TABS,ioos:station:wmo:42046:1,2009-08-02T20:30:00Z,27.8903,-94.0367,4.0,1.015135459,145.8405958,1.81,'11111222,11111222,11111222' 
TABS,ioos:station:wmo:42046:1,2009-08-02T21:00:00Z,27.8903,-94.0367,4.0,1.60178026,118.325337,2.64,'11111222,11111222,11111222' 
TABS,ioos:station:wmo:42046:1,2009-08-02T21:30:00Z,27.8903,-94.0367,4.0,2.009427779,137.0169348,3.06,'11111222,11111222,11111222' 
TABS,ioos:station:wmo:42046:1,2009-08-02T22:00:00Z,27.8903,-94.0367,4.0,2.011889659,121.7944186,3.2,'11111222,11111222,11111222' 
TABS,ioos:station:wmo:42046:1,2009-08-02T22:30:00Z,27.8903,-94.0367,4.0,1.668831927,134.514771,2.69,'11111222,11111222,11111222' 
TABS,ioos:station:wmo:42046:1,2009-08-02T23:00:00Z,27.8903,-94.0367,4.0,2.56400078,120.4658946,4.09,'11111222,11111222,11111222' 
TABS,ioos:station:wmo:42046:1,2009-08-02T23:30:00Z,27.8903,-94.0367,4.0,2.113030998,128.6601388,3.07,'11111222,11111222,11111222' 
TABS,ioos:station:wmo:42046:1,2009-08-03T00:00:00Z,27.8903,-94.0367,4.0,2.687638369,123.1582673,3.93,'11111222,11111222,11111222' 
TABS,ioos:station:wmo:42046:1,2009-08-03T00:30:00Z,27.8903,-94.0367,4.0,2.609693469,128.9344426,3.61,'11111222,11111222,11111222' 
TABS,ioos:station:wmo:42046:1,2009-08-03T01:00:00Z,27.8903,-94.0367,4.0,2.494353624,127.8350237,3.33,'11111222,11111222,11111222' 
TABS,ioos:station:wmo:42046:1,2009-08-03T01:30:00Z,27.8903,-94.0367,4.0,2.921797392,133.1974161,3.71,'11111222,11111222,11111222' 
TABS,ioos:station:wmo:42046:1,2009-08-03T02:00:00Z,27.8903,-94.0367,4.0,3.253013987,138.8640886,4.58,'11111222,11111222,11111222' 
TABS,ioos:station:wmo:42046:1,2009-08-03T02:30:00Z,27.8903,-94.0367,4.0,4.025729748,144.8100584,5.22,'11111222,11111222,11111222' 
TABS,ioos:station:wmo:42046:1,2009-08-03T03:00:00Z,27.8903,-94.0367,4.0,4.02914383,144.4956773,5.57,'11111222,11111222,11111222' 
TABS,ioos:station:wmo:42046:1,2009-08-03T03:30:00Z,27.8903,-94.0367,4.0,4.358313894,144.9975022,5.63,'11111222,11111222,11111222' 
TABS,ioos:station:wmo:42046:1,2009-08-03T04:00:00Z,27.8903,-94.0367,4.0,4.94171023,144.6378313,6.37,'11111222,11111222,11111222' 
TABS,ioos:station:wmo:42046:1,2009-08-03T04:30:00Z,27.8903,-94.0367,4.0,4.787065907,155.0412206,6.32,'11111222,11111222,11111222' 
TABS,ioos:station:wmo:42046:1,2009-08-03T05:00:00Z,27.8903,-94.0367,4.0,4.885672932,158.0028585,6.47,'11111222,11111222,11111222' 
TABS,ioos:station:wmo:42046:1,2009-08-03T05:30:00Z,27.8903,-94.0367,4.0,5.470109688,167.9713219,7.04,'11111222,11111222,11111222' 
TABS,ioos:station:wmo:42046:1,2009-08-03T06:00:00Z,27.8903,-94.0367,4.0,5.622561694,170.169347,6.81,'11111222,11111222,11111222' 
TABS,ioos:station:wmo:42046:1,2009-08-03T06:30:00Z,27.8903,-94.0367,4.0,5.66951497,167.2631649,7.12,'11111222,11111222,11111222' 
TABS,ioos:station:wmo:42046:1,2009-08-03T07:00:00Z,27.8903,-94.0367,4.0,5.641453713,166.2595895,7.0,'11111222,11111222,11111222' 
TABS,ioos:station:wmo:42046:1,2009-08-03T07:30:00Z,27.8903,-94.0367,4.0,5.344389582,169.2159378,6.71,'11111222,11111222,11111222' 
TABS,ioos:station:wmo:42046:1,2009-08-03T08:00:00Z,27.8903,-94.0367,4.0,4.744365079,173.0998984,6.14,'11111222,11111222,11111222' 
TABS,ioos:station:wmo:42046:1,2009-08-03T08:30:00Z,27.8903,-94.0367,4.0,4.978554007,167.471432,6.17,'11111222,11111222,11111222' 
TABS,ioos:station:wmo:42046:1,2009-08-03T09:00:00Z,27.8903,-94.0367,4.0,4.735419728,174.0608827,6.03,'11111222,11111222,11111222' 
TABS,ioos:station:wmo:42046:1,2009-08-03T09:30:00Z,27.8903,-94.0367,4.0,4.758245475,176.6266867,6.06,'11111222,11111222,11111222' 
TABS,ioos:station:wmo:42046:1,2009-08-03T10:00:00Z,27.8903,-94.0367,4.0,4.911781754,176.0309563,6.63,'11111222,11111222,11111222' 
TABS,ioos:station:wmo:42046:1,2009-08-03T10:30:00Z,27.8903,-94.0367,4.0,4.404384179,170.9870272,5.59,'11111222,11111222,11111222' 
TABS,ioos:station:wmo:42046:1,2009-08-03T11:00:00Z,27.8903,-94.0367,4.0,4.15390178,182.4837662,5.41,'11111222,11111222,11111222' 
TABS,ioos:station:wmo:42046:1,2009-08-03T11:30:00Z,27.8903,-94.0367,4.0,3.960618639,178.9875141,5.21,'11111222,11111222,11111222' 
TABS,ioos:station:wmo:42046:1,2009-08-03T12:00:00Z,27.8903,-94.0367,4.0,2.808629559,188.1879933,3.55,'11111222,11111222,11111222' 
TABS,ioos:station:wmo:42046:1,2009-08-03T12:30:00Z,27.8903,-94.0367,4.0,3.090258889,179.2585607,4.02,'11111222,11111222,11111222' 
TABS,ioos:station:wmo:42046:1,2009-08-03T13:00:00Z,27.8903,-94.0367,4.0,2.956095398,169.8687481,3.89,'11111222,11111222,11111222' 
TABS,ioos:station:wmo:42046:1,2009-08-03T13:30:00Z,27.8903,-94.0367,4.0,1.945867416,167.5353068,2.95,'11111222,11111222,11111222' 
TABS,ioos:station:wmo:42046:1,2009-08-03T14:00:00Z,27.8903,-94.0367,4.0,2.164740169,154.2638197,3.14,'11111222,11111222,11111222' 
TABS,ioos:station:wmo:42046:1,2009-08-03T14:30:00Z,27.8903,-94.0367,4.0,1.766720125,146.3102217,2.67,'11111222,11111222,11111222' 
TABS,ioos:station:wmo:42046:1,2009-08-03T15:00:00Z,27.8903,-94.0367,4.0,2.313655117,151.3305259,3.18,'11111222,11111222,11111222' 
TABS,ioos:station:wmo:42046:1,2009-08-03T15:30:00Z,27.8903,-94.0367,4.0,2.163792966,135.3747917,2.93,'11111222,11111222,11111222' 
TABS,ioos:station:wmo:42046:1,2009-08-03T16:00:00Z,27.8903,-94.0367,4.0,2.277015591,128.581544,3.06,'11111222,11111222,11111222' 
TABS,ioos:station:wmo:42046:1,2009-08-03T16:30:00Z,27.8903,-94.0367,4.0,2.766965847,112.3016616,3.81,'11111222,11111222,11111222' 
TABS,ioos:station:wmo:42046:1,2009-08-03T17:00:00Z,27.8903,-94.0367,4.0,2.584356787,86.67218262,3.6,'11111222,11111222,11111222' 
TABS,ioos:station:wmo:42046:1,2009-08-03T17:30:00Z,27.8903,-94.0367,4.0,3.45775939,112.2633348,4.42,'11111222,11111222,11111222' 
TABS,ioos:station:wmo:42046:1,2009-08-03T18:00:00Z,27.8903,-94.0367,4.0,3.193258524,116.003706,4.05,'11111222,11111222,11111222' 
TABS,ioos:station:wmo:42046:1,2009-08-03T18:30:00Z,27.8903,-94.0367,4.0,3.237360036,122.5122591,4.23,'11111222,11111222,11111222' 
TABS,ioos:station:wmo:42046:1,2009-08-03T19:00:00Z,27.8903,-94.0367,4.0,3.334021596,127.0764545,4.7,'11111222,11111222,11111222' 
TABS,ioos:station:wmo:42046:1,2009-08-03T19:30:00Z,27.8903,-94.0367,4.0,3.585080194,125.4637022,4.7,'11111222,11111222,11111222' 
TABS,ioos:station:wmo:42046:1,2009-08-03T20:00:00Z,27.8903,-94.0367,4.0,3.530226622,111.2592803,4.92,'11111222,11111222,11111222' 
TABS,ioos:station:wmo:42046:1,2009-08-03T20:30:00Z,27.8903,-94.0367,4.0,3.620124307,118.5476571,4.73,'11111222,11111222,11111222' 
TABS,ioos:station:wmo:42046:1,2009-08-03T21:00:00Z,27.8903,-94.0367,4.0,3.864776837,122.210019,5.01,'11111222,11111222,11111222' 
TABS,ioos:station:wmo:42046:1,2009-08-03T21:30:00Z,27.8903,-94.0367,4.0,4.157511275,123.9197439,5.13,'11111222,11111222,11111222' 
TABS,ioos:station:wmo:42046:1,2009-08-03T22:00:00Z,27.8903,-94.0367,4.0,3.942207503,122.3600673,5.2,'11111222,11111222,11111222' 
TABS,ioos:station:wmo:42046:1,2009-08-03T22:30:00Z,27.8903,-94.0367,4.0,4.038923124,120.5018572,5.21,'11111222,11111222,11111222' 
TABS,ioos:station:wmo:42046:1,2009-08-03T23:00:00Z,27.8903,-94.0367,4.0,4.501877386,120.7240104,5.56,'11111222,11111222,11111222' 
TABS,ioos:station:wmo:42046:1,2009-08-03T23:30:00Z,27.8903,-94.0367,4.0,4.246610413,125.8987554,5.57,'11111222,11111222,11111222' 
TABS,ioos:station:wmo:42046:1,2009-08-04T00:00:00Z,27.8903,-94.0367,4.0,4.168033109,116.503934,5.6,'11111222,11111222,11111222' 
TABS,ioos:station:wmo:42046:1,2009-08-04T00:30:00Z,27.8903,-94.0367,4.0,4.731521954,116.6195646,5.95,'11111222,11111222,11111222' 
TABS,ioos:station:wmo:42046:1,2009-08-04T01:00:00Z,27.8903,-94.0367,4.0,4.972926704,127.9763664,6.78,'11111222,11111222,11111222' 
TABS,ioos:station:wmo:42046:1,2009-08-04T01:30:00Z,27.8903,-94.0367,4.0,5.044769569,137.0084567,6.23,'11111222,11111222,11111222' 
TABS,ioos:station:wmo:42046:1,2009-08-04T02:00:00Z,27.8903,-94.0367,4.0,4.608958668,128.0388616,6.32,'11111222,11111222,11111222' 
TABS,ioos:station:wmo:42046:1,2009-08-04T02:30:00Z,27.8903,-94.0367,4.0,4.835297302,128.1974902,6.17,'11111222,11111222,11111222' 
TABS,ioos:station:wmo:42046:1,2009-08-04T03:00:00Z,27.8903,-94.0367,4.0,4.588354825,131.9968169,6.05,'11111222,11111222,11111222' 
TABS,ioos:station:wmo:42046:1,2009-08-04T03:30:00Z,27.8903,-94.0367,4.0,4.996048439,143.3827001,6.05,'11111222,11111222,11111222' 
TABS,ioos:station:wmo:42046:1,2009-08-04T04:00:00Z,27.8903,-94.0367,4.0,4.724256555,141.3594333,6.01,'11111222,11111222,11111222' 
TABS,ioos:station:wmo:42046:1,2009-08-04T04:30:00Z,27.8903,-94.0367,4.0,5.241917588,146.2799066,6.38,'11111222,11111222,11111222' 
TABS,ioos:station:wmo:42046:1,2009-08-04T05:00:00Z,27.8903,-94.0367,4.0,4.656006873,143.031953,5.87,'11111222,11111222,11111222' 
TABS,ioos:station:wmo:42046:1,2009-08-04T05:30:00Z,27.8903,-94.0367,4.0,4.477945958,144.8195934,5.74,'11111222,11111222,11111222' 
TABS,ioos:station:wmo:42046:1,2009-08-04T06:00:00Z,27.8903,-94.0367,4.0,4.633238608,153.0480946,6.1,'11111222,11111222,11111222' 
TABS,ioos:station:wmo:42046:1,2009-08-04T06:30:00Z,27.8903,-94.0367,4.0,4.057449938,158.3037409,5.28,'11111222,11111222,11111222' 
TABS,ioos:station:wmo:42046:1,2009-08-04T07:00:00Z,27.8903,-94.0367,4.0,4.102023891,154.7471061,5.3,'11111222,11111222,11111222' 
TABS,ioos:station:wmo:42046:1,2009-08-04T07:30:00Z,27.8903,-94.0367,4.0,4.286548728,151.5818337,5.37,'11111222,11111222,11111222' 
TABS,ioos:station:wmo:42046:1,2009-08-04T08:00:00Z,27.8903,-94.0367,4.0,3.908068577,155.99312,4.86,'11111222,11111222,11111222' 
TABS,ioos:station:wmo:42046:1,2009-08-04T08:30:00Z,27.8903,-94.0367,4.0,3.494066399,156.7370794,4.57,'11111222,11111222,11111222' 
TABS,ioos:station:wmo:42046:1,2009-08-04T09:00:00Z,27.8903,-94.0367,4.0,3.524656012,157.6554954,4.49,'11111222,11111222,11111222' 
TABS,ioos:station:wmo:42046:1,2009-08-04T09:30:00Z,27.8903,-94.0367,4.0,4.025580703,161.6103131,5.06,'11111222,11111222,11111222' 
TABS,ioos:station:wmo:42046:1,2009-08-04T10:00:00Z,27.8903,-94.0367,4.0,4.005246559,159.8460464,5.2,'11111222,11111222,11111222' 
TABS,ioos:station:wmo:42046:1,2009-08-04T10:30:00Z,27.8903,-94.0367,4.0,3.760172868,162.191725,4.78,'11111222,11111222,11111222' 
TABS,ioos:station:wmo:42046:1,2009-08-04T11:00:00Z,27.8903,-94.0367,4.0,3.277682108,163.3344919,4.59,'11111222,11111222,11111222' 
TABS,ioos:station:wmo:42046:1,2009-08-04T11:30:00Z,27.8903,-94.0367,4.0,2.974726878,154.7273853,3.8,'11111222,11111222,11111222' 
TABS,ioos:station:wmo:42046:1,2009-08-04T12:00:00Z,27.8903,-94.0367,4.0,3.295648646,147.5157602,4.19,'11111222,11111222,11111222' 
TABS,ioos:station:wmo:42046:1,2009-08-04T12:30:00Z,27.8903,-94.0367,4.0,3.423813663,151.1894841,4.37,'11111222,11111222,11111222' 
TABS,ioos:station:wmo:42046:1,2009-08-04T13:00:00Z,27.8903,-94.0367,4.0,3.449884056,141.2367432,4.23,'11111222,11111222,11111222' 
TABS,ioos:station:wmo:42046:1,2009-08-04T13:30:00Z,27.8903,-94.0367,4.0,3.249015235,137.6198584,3.98,'11111222,11111222,11111222' 
TABS,ioos:station:wmo:42046:1,2009-08-04T14:00:00Z,27.8903,-94.0367,4.0,2.880902636,139.7873036,3.62,'11111222,11111222,11111222' 
TABS,ioos:station:wmo:42046:1,2009-08-04T14:30:00Z,27.8903,-94.0367,4.0,3.173168763,138.3217837,3.72,'11111222,11111222,11111222' 
TABS,ioos:station:wmo:42046:1,2009-08-04T15:00:00Z,27.8903,-94.0367,4.0,2.929607482,132.7870927,3.76,'11111222,11111222,11111222' 
TABS,ioos:station:wmo:42046:1,2009-08-04T15:30:00Z,27.8903,-94.0367,4.0,2.852034362,126.5889797,3.58,'11111222,11111222,11111222' 
TABS,ioos:station:wmo:42046:1,2009-08-04T16:00:00Z,27.8903,-94.0367,4.0,2.71529004,135.0003157,3.39,'11111222,11111222,11111222' 
TABS,ioos:station:wmo:42046:1,2009-08-04T16:30:00Z,27.8903,-94.0367,4.0,2.843184834,122.7961112,3.81,'11111222,11111222,11111222' 
TABS,ioos:station:wmo:42046:1,2009-08-04T17:00:00Z,27.8903,-94.0367,4.0,2.817534383,117.0201278,3.72,'11111222,11111222,11111222' 
TABS,ioos:station:wmo:42046:1,2009-08-04T17:30:00Z,27.8903,-94.0367,4.0,2.918030157,104.893859,3.77,'11111222,11111222,11111222' 
TABS,ioos:station:wmo:42046:1,2009-08-04T18:00:00Z,27.8903,-94.0367,4.0,2.886243233,110.6958233,3.72,'11111222,11111222,11111222' 
TABS,ioos:station:wmo:42046:1,2009-08-04T18:30:00Z,27.8903,-94.0367,4.0,3.26111944,109.713291,4.32,'11111222,11111222,11111222' 